STARLINK-35798 (66292 NORAD) Tracking and Keplerian Element Data

This shows tracking and keplerian element data for the satellite.

Feedback or suggestion? Click here.




ElementValue
Catalog66292
NameSTARLINK-35798
Epoch Orbit863
Epoch Day352.8846985
Epoch Year2025
RAAN208.0727
Inclination53.1586
Eccentricity0.0001035
Argument of Perigee88.8322
Mean Anonmoly271.2802
Mean Motion15.39614902
Decay Rate4.239E-05
L11 66292U 25247AD 25352.88469850 .00004239 00000+0 11591-3 0 9997
L22 66292 53.1586 208.0727 0001035 88.8322 271.2802 15.39614902 8630



Live tracking and technical data element details for STARLINK-35798 (NORAD 66292). STARLINK-35798 can be tracked NOW for your location showing map with azimuth and elevation plus other details from your city location.







IsCatalogInMostPopularTable: catalog: 66292, numindb: 3
Update: records affected: 1



GetName: 66292 STARLINK-35798

Hit Count: updated at: Sun, 08 Feb 2026 16:39:21 GMT